Toronto, Ontario

6:09 AM EDT on March 25, 2017 (GMT -0400)
Toronto-City Centre

Weather History for CYTZ - October, 2012

Change the Weather History Date:

Monday, October 29, 2012

  Actual Average Record
Temperature  
Mean Temperature 42 °F -  
Max Temperature 44 °F 45 °F 68 °F (2016)
Min Temperature 40 °F 35 °F 33 °F (2000)
Degree Days  
Heating Degree Days 24    
Moisture  
Dew Point 38 °F    
Average Humidity 86    
Maximum Humidity 93    
Minimum Humidity 75    
Precipitation  
Precipitation 0.39 in 0.09 in - ()
Sea Level Pressure  
Sea Level Pressure 29.64 in    
Wind  
Wind Speed 18 mph ()    
Max Wind Speed 32 mph    
Max Gust Speed 48 mph    
Visibility 7.8 miles    
Events Rain    
Averages and records for this station are not official NWS values.
T = Trace of Precipitation, MM = Missing Value Source: Averaged Metar Reports

Daily Weather History Graph

Daily Weather History Graph

Search for Another Location

Airport or City:

Trip Planner

Search our weather history database for the weather conditions in past years. The results will help you decide how hot, cold, wet, or windy it might be!

Date:

Astronomy

Oct. 29, 2012 Rise Set
Actual Time 7:50 AM EDT 6:11 PM EDT
Civil Twilight 7:20 AM EDT 6:41 PM EDT
Nautical Twilight 6:46 AM EDT 7:15 PM EDT
Astronomical Twilight 6:13 AM EDT 7:48 PM EDT
Moon 6:01 PM EDT (10/29) 7:39 AM EDT (10/29)
Length of Visible Light 11h 21m
Length of Day
10h 21m
Full, 100% of the Moon is Illuminated
Oct 29
Full
Oct 29
Full
Nov 6
Last Quarter
Nov 13
New
Nov 20
First Quarter

Hourly Weather History & Observations

Time (EDT) Temp. Windchill Dew Point Humidity Pressure Visibility Wind Dir Wind Speed Gust Speed Precip Events Conditions
12:00 AM 41.0 °F 33.5 °F 37.4 °F 87% 29.97 in 9.0 mi North 13.8 mph 21.9 mph N/A Rain Light Rain
1:00 AM 41.0 °F 32.5 °F 37.4 °F 87% 29.95 in 9.0 mi North 17.3 mph 23.0 mph N/A Rain Light Rain
2:00 AM 41 °F - 38 °F 85% 29.94 in 10 mi North 15.0 mph - - Rain Light Rain
3:00 AM 41.0 °F 34.3 °F 39.2 °F 93% 29.94 in 9.0 mi NNW 11.5 mph 18.4 mph N/A Rain Light Rain
4:00 AM 41.0 °F 33.9 °F 37.4 °F 87% 29.91 in 9.0 mi NNW 12.7 mph 23.0 mph N/A Rain Light Rain
4:47 AM 41.0 °F 33.5 °F 37.4 °F 87% 29.90 in 9.0 mi NNW 13.8 mph 24.2 mph N/A Rain Light Rain
5:00 AM 41.0 °F 32.5 °F 37.4 °F 87% 29.91 in 9.0 mi North 17.3 mph 25.3 mph N/A Rain Light Rain
6:00 AM 41.0 °F 32.2 °F 37.4 °F 87% 29.91 in 9.0 mi NNW 18.4 mph - N/A Rain Light Rain
6:39 AM 41.0 °F 32.8 °F 37.4 °F 87% 29.90 in 9.0 mi NNW 16.1 mph 21.9 mph N/A Rain Light Rain
7:00 AM 41.0 °F 32.5 °F 37.4 °F 87% 29.89 in 9.0 mi NNW 17.3 mph 25.3 mph N/A Rain Light Rain
7:18 AM 41.0 °F 32.5 °F 37.4 °F 87% 29.89 in 9.0 mi NNW 17.3 mph 24.2 mph N/A Rain Light Rain
8:00 AM 41 °F - 38 °F 85% 29.89 in 10 mi NNW 16.1 mph - - Rain Light Rain
8:00 AM 41.0 °F 32.2 °F 37.4 °F 87% 29.89 in 9.0 mi North 18.4 mph 25.3 mph N/A Rain Light Rain
8:26 AM 41.0 °F 32.5 °F 37.4 °F 87% 29.89 in 9.0 mi North 17.3 mph 25.3 mph N/A   Overcast
9:00 AM 41.0 °F 32.5 °F 37.4 °F 87% 29.88 in 9.0 mi NNW 17.3 mph 25.3 mph N/A   Overcast
9:30 AM 41.0 °F 33.1 °F 37.4 °F 87% 29.88 in 9.0 mi NNW 15.0 mph 31.1 mph N/A   Overcast
10:00 AM 41.0 °F 32.8 °F 37.4 °F 87% 29.88 in 9.0 mi North 16.1 mph 27.6 mph N/A   Overcast
11:00 AM 42.8 °F 37.0 °F 39.2 °F 87% 29.86 in 9.0 mi North 10.4 mph 28.8 mph N/A   Overcast
12:00 PM 42.8 °F 34.3 °F 39.2 °F 87% 29.83 in 9.0 mi NNW 19.6 mph 27.6 mph N/A   Overcast
1:00 PM 42.8 °F 34.5 °F 39.2 °F 87% 29.81 in 9.0 mi North 18.4 mph 28.8 mph N/A   Overcast
2:00 PM 43 °F - 38 °F 77% 29.78 in 10 mi NNW 18.4 mph - -   Overcast
2:00 PM 42.8 °F 35.1 °F 37.4 °F 81% 29.78 in 9.0 mi NNW 16.1 mph 32.2 mph N/A   Overcast
2:17 PM 42.8 °F 34.3 °F 39.2 °F 87% 29.76 in 9.0 mi NNW 19.6 mph 31.1 mph N/A Rain Light Rain
2:46 PM 41.0 °F 31.6 °F 39.2 °F 93% 29.74 in 9.0 mi NNW 20.7 mph 29.9 mph N/A Rain Light Rain
3:00 PM 42.8 °F 35.4 °F 39.2 °F 87% 29.74 in 9.0 mi NNW 15.0 mph 29.9 mph N/A Rain Light Rain
3:15 PM 42.8 °F 35.4 °F 39.2 °F 87% 29.73 in 9.0 mi NNW 15.0 mph 21.9 mph N/A   Overcast
3:53 PM 42.8 °F 33.8 °F 37.4 °F 81% 29.69 in 9.0 mi NNW 21.9 mph 31.1 mph N/A   Overcast
4:00 PM 42.8 °F 33.1 °F 37.4 °F 81% 29.70 in 9.0 mi NNW 25.3 mph 35.7 mph N/A   Mostly Cloudy
4:34 PM 42.8 °F 33.3 °F 37.4 °F 81% 29.68 in 9.0 mi North 24.2 mph 34.5 mph N/A Rain Light Rain
4:44 PM 42.8 °F 33.1 °F 37.4 °F 81% 29.67 in 9.0 mi NNW 25.3 mph 34.5 mph N/A   Overcast
5:00 PM 41.0 °F 30.7 °F 37.4 °F 87% 29.66 in 9.0 mi NNW 25.3 mph 39.1 mph N/A   Overcast
5:05 PM 41.0 °F 30.9 °F 37.4 °F 87% 29.66 in 9.0 mi North 24.2 mph 41.4 mph N/A Rain Light Rain
5:55 PM 41.0 °F 30.7 °F 37.4 °F 87% 29.60 in 9.0 mi NNW 25.3 mph 44.9 mph N/A   Overcast
6:00 PM 41.0 °F 31.4 °F 37.4 °F 87% 29.61 in 9.0 mi NNW 21.9 mph 38.0 mph N/A   Overcast
7:00 PM 41.0 °F 30.2 °F 35.6 °F 81% 29.58 in 9.0 mi North 27.6 mph 40.3 mph N/A   Overcast
7:14 PM 41.0 °F 31.4 °F 35.6 °F 81% 29.57 in 9.0 mi North 21.9 mph 35.7 mph N/A Rain Light Rain
7:28 PM 41.0 °F 30.9 °F 37.4 °F 87% 29.57 in 9.0 mi North 24.2 mph 47.2 mph N/A   Overcast
7:34 PM 41.0 °F 30.9 °F 37.4 °F 87% 29.56 in 9.0 mi NNW 24.2 mph 36.8 mph N/A Rain Light Rain
7:48 PM 41.0 °F 31.6 °F 37.4 °F 87% 29.53 in 9.0 mi North 20.7 mph 35.7 mph N/A   Overcast
8:00 PM 42 °F - 37 °F 75% 29.52 in 10 mi North 24.2 mph - - Rain Light Rain
8:00 PM 41.0 °F 30.7 °F 37.4 °F 87% 29.52 in 9.0 mi North 25.3 mph 38.0 mph N/A Rain Light Rain
8:20 PM 41.0 °F 30.7 °F 37.4 °F 87% 29.51 in 9.0 mi NNW 25.3 mph 41.4 mph N/A Rain Rain
9:00 PM 41.0 °F 30.9 °F 37.4 °F 87% 29.49 in 7.0 mi NNW 24.2 mph 34.5 mph N/A Rain Rain
9:05 PM 41.0 °F 31.1 °F 37.4 °F 87% 29.49 in 5.0 mi NNW 23.0 mph 35.7 mph N/A Rain Rain
9:18 PM 41.0 °F 31.4 °F 37.4 °F 87% 29.48 in 6.0 mi North 21.9 mph 36.8 mph N/A Rain Rain
9:30 PM 41.0 °F 30.9 °F 37.4 °F 87% 29.46 in 7.0 mi North 24.2 mph 43.7 mph N/A Rain Heavy Rain
9:32 PM 41.0 °F 30.7 °F 37.4 °F 87% 29.46 in 6.0 mi North 25.3 mph 43.7 mph N/A Rain Light Rain
10:00 PM 41.0 °F 32.5 °F 37.4 °F 87% 29.45 in 9.0 mi NNW 17.3 mph 28.8 mph N/A Rain Light Rain
10:25 PM 42.8 °F 33.3 °F 39.2 °F 87% 29.42 in 8.0 mi NNW 24.2 mph 48.3 mph N/A Rain Light Rain
10:26 PM 42.8 °F 33.5 °F 39.2 °F 87% 29.42 in 8.0 mi NNW 23.0 mph 34.5 mph N/A Rain Light Rain
10:27 PM 42.8 °F 33.5 °F 39.2 °F 87% 29.42 in 8.0 mi North 23.0 mph 34.5 mph N/A Rain Light Rain
10:33 PM 42.8 °F 34.3 °F 39.2 °F 87% 29.41 in 5.0 mi North 19.6 mph 34.5 mph N/A Rain Rain
10:35 PM 42.8 °F 33.3 °F 39.2 °F 87% 29.41 in 4.0 mi North 24.2 mph 40.3 mph N/A Rain Rain
10:38 PM 42.8 °F 33.5 °F 39.2 °F 87% 29.41 in 3.0 mi North 23.0 mph 40.3 mph N/A Rain Rain
10:45 PM 42.8 °F 34.5 °F 39.2 °F 87% 29.39 in 3.0 mi North 18.4 mph 41.4 mph N/A Rain Light Rain
10:48 PM 42.8 °F 32.7 °F 39.2 °F 87% 29.38 in 3.0 mi NNW 27.6 mph 41.4 mph N/A Rain Light Rain
10:49 PM 42.8 °F 32.9 °F 39.2 °F 87% 29.38 in 3.0 mi NNW 26.5 mph 41.4 mph N/A Rain Rain
10:53 PM 42.8 °F 33.5 °F 39.2 °F 87% 29.39 in 3.0 mi North 23.0 mph 38.0 mph N/A Rain Light Rain
10:58 PM 42.8 °F 31.9 °F 39.2 °F 87% 29.38 in 3.0 mi NNW 32.2 mph 46.0 mph N/A Rain Light Rain
10:59 PM 42.8 °F 33.1 °F 39.2 °F 87% 29.39 in 3.0 mi NNW 25.3 mph 46.0 mph N/A Rain Light Rain
11:00 PM 42.8 °F 34.0 °F 39.2 °F 87% 29.39 in 3.0 mi NNW 20.7 mph 46.0 mph N/A Rain Rain
11:03 PM 42.8 °F 32.7 °F 39.2 °F 87% 29.37 in 3.0 mi NNW 27.6 mph 46.0 mph N/A Rain Rain
11:18 PM 42.8 °F 33.5 °F 39.2 °F 87% 29.35 in 6.0 mi NNW 23.0 mph 43.7 mph N/A Rain Light Rain
11:55 PM 44.6 °F 35.9 °F 39.2 °F 81% 29.32 in 9.0 mi North 23.0 mph 43.7 mph N/A   Overcast